User: anonymous   Login
Location: Dittelbrunn
(50.0738°N, 10.2196°E)
Time: 03:33:18
(UTC+00:00)
Language:

Cosmos 1707 - Orbit

View from above orbital plane
View from above orbital plane
View from above satellite
View from above satellite

Ground track
Ground track

The orbit data is extracted from the following two-line orbital elements,

1 16326U 85113A   20338.90148813  .00000711  00000-0  37009-4 0  9998
2 16326  82.5125  43.7523 0009015 242.9018 117.1295 15.14439833908563
Epoch (UTC): 03 December 2020 21:38:08
Eccentricity: 0.0009015
inclination: 82.5125°
perigee height: 516 km
apogee height: 529 km
right ascension of ascending node: 43.7523°
argument of perigee: 242.9018°
revolutions per day: 15.14439833
mean anomaly at epoch: 117.1295°
orbit number at epoch: 90856

The dashed part of the orbit path shows where the satellite is in the earth's shadow,  

DLR